contact:dominique.lefevre@mio.osupytheas.fr, maurice.libes@osupytheas.fr, didier.mallarino@osupytheas.fr
Project:EMSO http://www.emso-fr.org/EMSO-France
Depth: 2436.0 m
Title:EMSO Ligure Ouest : Data MII capteur AQUADOPP
Date,Latitude,Longitude,X_East,Y_North,Z_Up,Amplitude_X,Amplitude_Y,Amplitude_Z,Batterie,SoundSpeed,Heading,Pitch,Roll,Pressure,TIS,Speed,Direction
, degrees North, degrees East, m.s-1, m.s-1,m.s-1, 1, 1, 1, Volt, m.s-1, degree, degree, degree, dbar, degree_C, m.s-1, degree
2023-01-22T00:04:03,42.805,6.029,0.024,-0.008,0.016,102.0,102.0,102.0,13.3,1505.2,325.5,-0.8,1.8,2471.103,13.29,0.025,108.4
2023-01-22T00:07:03,42.805,6.029,0.011,-0.007,0.023,102.0,102.0,101.0,13.4,1505.2,323.4,-0.8,1.8,2471.132,13.29,0.013,122.5
2023-01-22T00:10:03,42.805,6.029,-0.004,-0.013,-0.012,103.0,101.0,102.0,13.3,1505.2,327.3,-0.8,1.8,2471.074,13.29,0.013,197.1
2023-01-22T00:13:03,42.805,6.029,-0.019,-0.007,-0.008,102.0,101.0,102.0,13.4,1505.2,337.5,-0.8,1.8,2471.109,13.29,0.02,249.8
2023-01-22T00:16:03,42.805,6.029,0.0,-0.036,-0.02,101.0,102.0,101.0,13.4,1505.2,320.1,-0.7,1.8,2471.075,13.29,0.036,180.0
2023-01-22T00:19:03,42.805,6.029,0.001,0.0,0.027,102.0,102.0,101.0,13.3,1505.2,319.2,-0.7,1.8,2471.079,13.29,0.001,90.0
2023-01-22T00:22:03,42.805,6.029,0.001,-0.018,0.017,101.0,102.0,102.0,13.4,1505.2,324.8,-0.8,1.8,2471.109,13.29,0.018,176.8
2023-01-22T00:25:03,42.805,6.029,-0.006,0.005,0.012,102.0,102.0,102.0,13.4,1505.2,325.3,-0.7,1.8,2471.083,13.29,0.007,309.8
2023-01-22T00:28:03,42.805,6.029,-0.016,-0.02,0.002,103.0,101.0,101.0,13.4,1505.2,334.6,-0.8,1.8,2471.042,13.29,0.025,218.7
2023-01-22T00:31:03,42.805,6.029,0.031,-0.006,0.0,103.0,103.0,102.0,13.3,1505.2,318.0,-0.8,1.8,2471.077,13.29,0.031,101.0
2023-01-22T00:34:03,42.805,6.029,-0.026,-0.009,-0.006,103.0,101.0,102.0,13.3,1505.2,325.3,-0.8,1.8,2471.059,13.29,0.027,250.9
2023-01-22T00:37:03,42.805,6.029,-0.007,-0.036,0.015,101.0,102.0,102.0,13.3,1505.2,321.5,-0.8,1.8,2471.045,13.29,0.036,191.0
2023-01-22T00:40:03,42.805,6.029,-0.015,-0.004,0.003,102.0,103.0,102.0,13.3,1505.2,329.8,-0.7,1.8,2471.07,13.29,0.015,255.1
2023-01-22T00:43:03,42.805,6.029,-0.017,0.004,0.003,103.0,102.0,101.0,13.4,1505.2,337.8,-0.7,1.8,2471.037,13.29,0.017,283.2
2023-01-22T00:46:03,42.805,6.029,-0.018,-0.012,-0.021,102.0,102.0,103.0,13.3,1505.2,319.2,-0.7,1.8,2471.028,13.29,0.021,236.3
2023-01-22T00:49:03,42.805,6.029,0.018,-0.006,0.025,104.0,104.0,101.0,13.4,1505.2,323.6,-0.8,1.8,2471.048,13.29,0.018,108.4
2023-01-22T00:52:03,42.805,6.029,0.006,-0.006,0.003,103.0,103.0,102.0,13.4,1505.2,322.6,-0.7,1.8,2471.03,13.29,0.008,135.0
2023-01-22T00:55:03,42.805,6.029,-0.015,0.008,0.003,102.0,102.0,102.0,13.3,1505.2,335.5,-0.7,1.8,2471.084,13.29,0.017,298.1
2023-01-22T00:58:03,42.805,6.029,-0.025,-0.018,-0.045,102.0,102.0,101.0,13.4,1505.2,316.0,-0.8,1.8,2471.013,13.29,0.03,234.2
2023-01-22T01:04:03,42.805,6.029,-0.014,-0.011,-0.032,104.0,104.0,103.0,13.3,1505.2,327.6,-0.7,1.8,2471.108,13.29,0.017,231.8
2023-01-22T01:07:04,42.805,6.029,-0.002,0.002,-0.004,102.0,102.0,102.0,13.3,1505.2,330.4,-0.7,1.8,2471.088,13.29,0.002,315.0
2023-01-22T01:10:03,42.805,6.029,0.0,-0.026,0.009,103.0,102.0,102.0,13.4,1505.2,316.0,-0.8,1.8,2471.041,13.29,0.026,180.0
2023-01-22T01:13:03,42.805,6.029,-0.019,-0.008,0.032,103.0,102.0,101.0,13.4,1505.2,329.3,-0.8,1.8,2471.086,13.29,0.02,247.2
2023-01-22T01:16:03,42.805,6.029,-0.007,-0.006,0.024,103.0,102.0,102.0,13.4,1505.2,333.0,-0.8,1.8,2471.059,13.29,0.009,229.4
2023-01-22T01:19:03,42.805,6.029,-0.011,-0.021,0.017,101.0,103.0,102.0,13.4,1505.2,334.6,-0.7,1.8,2471.057,13.29,0.023,207.6
2023-01-22T01:22:03,42.805,6.029,0.016,-0.03,-0.027,103.0,102.0,102.0,13.4,1505.2,322.0,-0.8,1.8,2471.041,13.29,0.034,151.9
2023-01-22T01:25:03,42.805,6.029,-0.001,0.002,0.032,102.0,102.0,101.0,13.4,1505.2,322.1,-0.8,1.8,2471.044,13.29,0.002,333.4
2023-01-22T01:28:03,42.805,6.029,0.006,-0.018,0.035,102.0,102.0,102.0,13.4,1505.2,327.7,-0.7,1.8,2471.071,13.29,0.018,161.6
2023-01-22T01:31:03,42.805,6.029,0.0,-0.014,0.018,101.0,103.0,102.0,13.4,1505.2,320.6,-0.8,1.9,2471.039,13.29,0.014,180.0
2023-01-22T01:34:03,42.805,6.029,-0.018,-0.008,0.038,102.0,102.0,102.0,13.4,1505.2,329.9,-0.7,1.8,2471.039,13.29,0.019,246.0
2023-01-22T01:37:03,42.805,6.029,-0.012,-0.001,-0.013,103.0,103.0,102.0,13.4,1505.2,337.5,-0.8,1.8,2471.049,13.29,0.012,265.2
2023-01-22T01:40:03,42.805,6.029,-0.026,-0.012,-0.004,103.0,100.0,101.0,13.4,1505.2,327.0,-0.8,1.8,2471.041,13.29,0.028,245.2
2023-01-22T01:43:03,42.805,6.029,-0.009,-0.027,-0.028,102.0,102.0,101.0,13.4,1505.2,322.1,-0.8,1.9,2471.027,13.29,0.028,198.4
2023-01-22T01:46:03,42.805,6.029,0.003,-0.038,-0.01,103.0,103.0,101.0,13.4,1505.2,327.6,-0.8,1.8,2471.077,13.29,0.038,175.5
2023-01-22T01:49:03,42.805,6.029,-0.011,-0.005,-0.001,102.0,102.0,101.0,13.4,1505.2,335.4,-0.7,1.8,2471.061,13.29,0.012,245.6
2023-01-22T01:52:03,42.805,6.029,0.01,-0.025,0.018,101.0,101.0,103.0,13.4,1505.2,327.9,-0.8,1.8,2471.077,13.29,0.026,158.2
2023-01-22T01:55:03,42.805,6.029,0.0,-0.004,0.005,102.0,101.0,103.0,13.3,1505.2,319.0,-0.8,1.9,2471.045,13.29,0.004,180.0
2023-01-22T01:58:03,42.805,6.029,0.004,-0.009,0.016,103.0,102.0,101.0,13.4,1505.2,331.8,-0.7,1.8,2471.031,13.29,0.009,156.0
2023-01-22T02:04:03,42.805,6.029,-0.006,-0.012,0.037,101.0,102.0,102.0,13.4,1505.2,334.6,-0.8,1.8,2471.092,13.28,0.013,206.6
2023-01-22T02:07:03,42.805,6.029,0.01,0.009,0.079,103.0,102.0,101.0,13.4,1505.2,333.8,-0.8,1.8,2471.106,13.28,0.013,48.0
2023-01-22T02:10:03,42.805,6.029,0.008,-0.028,-0.012,103.0,102.0,102.0,13.4,1505.2,328.2,-0.7,1.8,2471.091,13.29,0.029,164.1
2023-01-22T02:13:03,42.805,6.029,-0.002,-0.018,0.002,102.0,102.0,101.0,13.4,1505.2,328.8,-0.8,1.8,2471.077,13.29,0.018,186.3
2023-01-22T02:16:03,42.805,6.029,0.004,-0.006,0.006,104.0,100.0,103.0,13.4,1505.2,325.3,-0.8,1.8,2471.052,13.29,0.007,146.3
2023-01-22T02:19:03,42.805,6.029,0.016,-0.023,0.032,104.0,103.0,100.0,13.4,1505.2,322.1,-0.8,1.8,2471.077,13.29,0.028,145.2
2023-01-22T02:22:03,42.805,6.029,-0.003,-0.007,-0.014,103.0,102.0,103.0,13.4,1505.2,321.2,-0.8,1.8,2471.064,13.29,0.007,203.2
2023-01-22T02:25:03,42.805,6.029,0.006,-0.002,0.016,102.0,101.0,103.0,13.4,1505.2,326.5,-0.7,1.8,2471.047,13.29,0.006,108.4
2023-01-22T02:28:03,42.805,6.029,-0.012,0.0,-0.02,101.0,102.0,101.0,13.4,1505.2,320.6,-0.7,1.8,2471.079,13.29,0.012,270.0
2023-01-22T02:31:03,42.805,6.029,0.02,0.008,0.044,102.0,102.0,101.0,13.4,1505.2,315.0,-0.8,1.8,2471.069,13.29,0.021,68.2
2023-01-22T02:34:03,42.805,6.029,-0.006,-0.019,0.008,99.0,102.0,102.0,13.4,1505.2,335.5,-0.8,1.8,2471.058,13.29,0.019,197.5
2023-01-22T02:37:03,42.805,6.029,-0.005,-0.034,-0.012,103.0,102.0,100.0,13.4,1505.2,337.5,-0.8,1.8,2471.091,13.29,0.034,188.4
2023-01-22T02:40:02,42.805,6.029,0.018,-0.007,0.013,102.0,103.0,101.0,13.4,1505.2,320.8,-0.8,1.8,2471.109,13.29,0.019,111.2
2023-01-22T02:43:02,42.805,6.029,0.001,-0.026,-0.031,102.0,101.0,102.0,13.4,1505.2,322.3,-0.7,1.8,2471.096,13.29,0.026,177.8
2023-01-22T02:46:02,42.805,6.029,0.0,-0.012,-0.025,101.0,102.0,102.0,13.3,1505.2,336.3,-0.8,1.8,2471.045,13.29,0.012,180.0
2023-01-22T02:49:02,42.805,6.029,0.003,-0.012,0.02,100.0,101.0,102.0,13.3,1505.2,326.1,-0.7,1.8,2471.045,13.29,0.012,166.0
2023-01-22T02:52:02,42.805,6.029,0.006,-0.023,0.025,101.0,102.0,101.0,13.4,1505.2,324.6,-0.8,1.8,2471.074,13.29,0.023,165.4
2023-01-22T02:55:03,42.805,6.029,0.02,-0.028,0.01,100.0,103.0,101.0,13.4,1505.2,326.5,-0.8,1.8,2471.08,13.29,0.034,144.5
2023-01-22T02:58:03,42.805,6.029,0.0,-0.002,0.01,102.0,101.0,103.0,13.3,1505.2,335.5,-0.8,1.8,2471.06,13.29,0.002,180.0
2023-01-22T03:04:02,42.805,6.029,-0.005,0.008,0.029,102.0,102.0,102.0,13.3,1505.2,330.5,-0.8,1.8,2471.124,13.28,0.009,328.0
2023-01-22T03:07:02,42.805,6.029,-0.014,-0.017,0.0,101.0,101.0,101.0,13.4,1505.2,323.4,-0.7,1.8,2471.107,13.28,0.022,219.5
2023-01-22T03:10:03,42.805,6.029,0.011,-0.013,0.022,102.0,102.0,101.0,13.4,1505.2,323.8,-0.8,1.8,2471.134,13.29,0.017,139.8
2023-01-22T03:13:03,42.805,6.029,0.026,-0.042,-0.018,101.0,103.0,100.0,13.3,1505.2,335.3,-0.7,1.8,2471.136,13.29,0.049,148.2
2023-01-22T03:16:03,42.805,6.029,0.002,-0.01,0.0,102.0,102.0,102.0,13.4,1505.2,336.5,-0.8,1.8,2471.1,13.29,0.01,168.7
2023-01-22T03:19:03,42.805,6.029,0.022,-0.009,0.006,102.0,102.0,101.0,13.4,1505.2,332.7,-0.8,1.8,2471.112,13.29,0.023,112.2
2023-01-22T03:22:03,42.805,6.029,0.009,-0.021,-0.025,103.0,103.0,101.0,13.3,1505.2,318.6,-0.8,1.8,2471.107,13.29,0.022,156.8
2023-01-22T03:25:03,42.805,6.029,0.015,-0.026,0.007,101.0,104.0,100.0,13.4,1505.2,333.4,-0.7,1.8,2471.154,13.29,0.03,150.0
2023-01-22T03:28:03,42.805,6.029,0.0,-0.005,0.012,101.0,103.0,103.0,13.3,1505.2,321.9,-0.8,1.8,2471.076,13.29,0.005,180.0
2023-01-22T03:31:03,42.805,6.029,0.001,-0.019,-0.011,102.0,102.0,102.0,13.4,1505.2,329.2,-0.7,1.8,2471.116,13.29,0.019,177.0
2023-01-22T03:34:03,42.805,6.029,-0.003,-0.008,-0.011,102.0,100.0,102.0,13.4,1505.2,330.2,-0.8,1.8,2471.118,13.29,0.008,200.6
2023-01-22T03:37:03,42.805,6.029,0.0,0.0,0.02,101.0,103.0,103.0,13.4,1505.2,333.0,-0.8,1.8,2471.143,13.29,0.0,0.0
2023-01-22T03:40:03,42.805,6.029,0.003,0.005,0.023,102.0,102.0,102.0,13.3,1505.2,330.8,-0.8,1.8,2471.101,13.29,0.005,31.0
2023-01-22T03:43:03,42.805,6.029,0.027,-0.025,0.036,102.0,102.0,102.0,13.4,1505.2,324.8,-0.7,1.8,2471.116,13.29,0.036,132.8
2023-01-22T03:46:03,42.805,6.029,-0.006,-0.023,0.027,102.0,103.0,101.0,13.4,1505.2,319.6,-0.8,1.8,2471.138,13.29,0.023,194.6
2023-01-22T03:49:03,42.805,6.029,0.023,-0.013,0.017,102.0,103.0,101.0,13.4,1505.2,316.5,-0.8,1.8,2471.132,13.29,0.026,119.5
2023-01-22T03:52:03,42.805,6.029,0.021,-0.016,0.016,103.0,101.0,101.0,13.3,1505.2,322.9,-0.8,1.8,2471.121,13.29,0.026,127.3
2023-01-22T03:55:03,42.805,6.029,0.006,-0.008,0.004,102.0,103.0,102.0,13.4,1505.2,321.5,-0.8,1.8,2471.138,13.29,0.01,143.1
2023-01-22T03:58:03,42.805,6.029,0.005,-0.027,0.008,102.0,104.0,102.0,13.4,1505.2,335.7,-0.7,1.8,2471.168,13.29,0.027,169.5
2023-01-22T04:04:03,42.805,6.029,0.012,-0.024,0.001,103.0,103.0,103.0,13.4,1505.2,327.1,-0.7,1.8,2471.171,13.28,0.026,153.4
2023-01-22T04:07:03,42.805,6.029,-0.016,-0.02,0.013,103.0,102.0,102.0,13.4,1505.2,332.3,-0.7,1.8,2471.21,13.28,0.025,218.7
2023-01-22T04:10:03,42.805,6.029,-0.002,-0.025,0.024,103.0,101.0,103.0,13.4,1505.2,323.1,-0.7,1.8,2471.165,13.28,0.025,184.6
2023-01-22T04:13:03,42.805,6.029,-0.008,-0.004,0.03,103.0,102.0,101.0,13.4,1505.2,332.2,-0.8,1.8,2471.155,13.29,0.008,243.4
2023-01-22T04:16:03,42.805,6.029,0.038,-0.008,0.037,102.0,103.0,102.0,13.4,1505.2,331.5,-0.8,1.8,2471.178,13.29,0.038,101.9
2023-01-22T04:19:03,42.805,6.029,-0.006,-0.037,0.002,102.0,103.0,101.0,13.4,1505.2,322.1,-0.7,1.9,2471.186,13.29,0.037,189.2
2023-01-22T04:22:03,42.805,6.029,0.022,-0.031,0.004,102.0,101.0,102.0,13.3,1505.2,330.1,-0.8,1.8,2471.215,13.29,0.038,144.6
2023-01-22T04:25:03,42.805,6.029,0.011,-0.013,0.026,101.0,103.0,103.0,13.3,1505.2,327.5,-0.8,1.8,2471.202,13.29,0.017,139.8
2023-01-22T04:28:03,42.805,6.029,-0.007,-0.012,0.011,103.0,100.0,103.0,13.4,1505.2,325.6,-0.8,1.8,2471.214,13.29,0.013,210.3
2023-01-22T04:31:03,42.805,6.029,0.001,-0.028,-0.007,103.0,101.0,102.0,13.4,1505.2,316.5,-0.8,1.8,2471.208,13.29,0.028,178.0
2023-01-22T04:34:03,42.805,6.029,0.004,-0.024,0.02,101.0,103.0,102.0,13.4,1505.2,330.2,-0.8,1.8,2471.191,13.29,0.024,170.5
2023-01-22T04:37:03,42.805,6.029,0.015,-0.03,0.017,102.0,103.0,101.0,13.4,1505.2,322.2,-0.8,1.8,2471.219,13.29,0.033,153.4
2023-01-22T04:40:03,42.805,6.029,-0.005,-0.008,0.022,104.0,101.0,102.0,13.4,1505.2,329.0,-0.7,1.8,2471.225,13.29,0.009,212.0
2023-01-22T04:43:03,42.805,6.029,-0.007,-0.016,0.027,102.0,101.0,102.0,13.4,1505.2,334.1,-0.7,1.8,2471.181,13.29,0.017,203.6
2023-01-22T04:46:03,42.805,6.029,0.012,-0.017,0.014,101.0,101.0,103.0,13.3,1505.2,317.6,-0.8,1.8,2471.202,13.29,0.02,144.8
2023-01-22T04:49:03,42.805,6.029,0.009,-0.023,-0.026,103.0,102.0,102.0,13.4,1505.2,319.7,-0.8,1.8,2471.185,13.29,0.024,158.6
2023-01-22T04:52:03,42.805,6.029,0.031,-0.016,-0.003,103.0,104.0,101.0,13.4,1505.2,332.3,-0.7,1.8,2471.248,13.29,0.034,117.3
2023-01-22T04:55:03,42.805,6.029,-0.003,0.003,0.021,102.0,103.0,101.0,13.4,1505.2,339.5,-0.7,1.8,2471.227,13.29,0.004,315.0
2023-01-22T04:58:03,42.805,6.029,0.022,-0.038,0.014,102.0,103.0,101.0,13.4,1505.2,322.9,-0.8,1.8,2471.203,13.29,0.043,149.9
2023-01-22T05:04:03,42.805,6.029,0.003,-0.02,0.021,101.0,103.0,102.0,13.4,1505.2,337.8,-0.8,1.8,2471.281,13.28,0.02,171.5
2023-01-22T05:07:03,42.805,6.029,-0.001,-0.011,-0.006,101.0,104.0,103.0,13.3,1505.2,334.8,-0.8,1.8,2471.315,13.28,0.011,185.2
2023-01-22T05:10:03,42.805,6.029,-0.008,-0.008,-0.037,102.0,103.0,102.0,13.4,1505.2,318.1,-0.7,1.8,2471.283,13.28,0.011,225.0
2023-01-22T05:13:03,42.805,6.029,0.03,-0.022,0.031,102.0,102.0,103.0,13.4,1505.2,330.0,-0.8,1.8,2471.274,13.29,0.037,126.3
2023-01-22T05:16:03,42.805,6.029,0.021,-0.018,0.012,103.0,102.0,101.0,13.3,1505.2,327.1,-0.7,1.8,2471.287,13.29,0.027,130.6
2023-01-22T05:19:03,42.805,6.029,0.025,-0.017,0.017,102.0,102.0,102.0,13.4,1505.2,333.0,-0.8,1.8,2471.261,13.29,0.03,124.2
2023-01-22T05:22:03,42.805,6.029,0.017,-0.02,-0.01,102.0,102.0,102.0,13.4,1505.2,323.1,-0.8,1.8,2471.273,13.29,0.026,139.6
2023-01-22T05:25:03,42.805,6.029,0.014,-0.013,0.028,101.0,102.0,102.0,13.3,1505.2,323.8,-0.8,1.8,2471.282,13.29,0.019,132.9
2023-01-22T05:28:03,42.805,6.029,0.02,-0.028,-0.017,101.0,101.0,102.0,13.3,1505.2,333.8,-0.8,1.8,2471.298,13.29,0.034,144.5
2023-01-22T05:31:03,42.805,6.029,0.0,-0.021,0.022,103.0,103.0,101.0,13.4,1505.2,323.2,-0.7,1.8,2471.257,13.29,0.021,180.0
2023-01-22T05:34:03,42.805,6.029,0.017,-0.031,0.001,102.0,103.0,103.0,13.4,1505.2,330.5,-0.8,1.8,2471.297,13.29,0.035,151.3
2023-01-22T05:37:03,42.805,6.029,0.011,-0.006,0.004,101.0,104.0,102.0,13.4,1505.2,323.7,-0.8,1.8,2471.276,13.29,0.012,118.6
2023-01-22T05:40:03,42.805,6.029,0.002,-0.032,-0.006,102.0,103.0,102.0,13.4,1505.2,333.4,-0.7,1.8,2471.279,13.29,0.032,176.4
2023-01-22T05:43:03,42.805,6.029,0.0,-0.024,-0.007,103.0,103.0,102.0,13.3,1505.2,325.3,-0.8,1.8,2471.293,13.29,0.024,180.0
2023-01-22T05:46:03,42.805,6.029,-0.038,0.002,-0.021,101.0,102.0,101.0,13.4,1505.2,336.4,-0.7,1.8,2471.276,13.29,0.038,273.0
2023-01-22T05:49:03,42.805,6.029,0.016,-0.031,0.015,100.0,102.0,102.0,13.4,1505.2,338.2,-0.7,1.8,2471.281,13.29,0.034,152.7
2023-01-22T05:52:03,42.805,6.029,0.013,-0.015,0.008,104.0,101.0,101.0,13.4,1505.2,322.6,-0.8,1.8,2471.313,13.29,0.019,139.1
2023-01-22T05:55:03,42.805,6.029,0.009,-0.016,0.01,102.0,102.0,102.0,13.3,1505.2,327.9,-0.7,1.8,2471.336,13.29,0.018,150.6
2023-01-22T05:58:03,42.805,6.029,0.014,-0.022,-0.012,102.0,103.0,102.0,13.4,1505.2,322.3,-0.8,1.8,2471.321,13.29,0.026,147.5
2023-01-22T06:04:02,42.805,6.029,-0.005,-0.011,0.022,103.0,103.0,102.0,13.4,1505.2,324.0,-0.8,1.8,2471.358,13.28,0.012,204.4
2023-01-22T06:07:03,42.805,6.029,0.012,-0.029,-0.011,103.0,103.0,102.0,13.4,1505.2,315.5,-0.8,1.8,2471.364,13.28,0.031,157.5
2023-01-22T06:10:03,42.805,6.029,0.001,-0.01,0.0,103.0,102.0,102.0,13.4,1505.2,333.0,-0.8,1.8,2471.348,13.29,0.01,174.3
2023-01-22T06:13:03,42.805,6.029,0.034,-0.026,0.02,103.0,102.0,102.0,13.3,1505.2,330.1,-0.7,1.8,2471.326,13.29,0.042,127.4
2023-01-22T06:16:03,42.805,6.029,0.018,-0.016,0.014,103.0,102.0,102.0,13.4,1505.2,322.8,-0.8,1.8,2471.333,13.29,0.024,131.6
2023-01-22T06:19:03,42.805,6.029,-0.014,-0.018,0.001,103.0,102.0,103.0,13.3,1505.2,331.5,-0.8,1.8,2471.312,13.29,0.022,217.9
2023-01-22T06:22:03,42.805,6.029,0.015,-0.009,0.019,103.0,102.0,101.0,13.4,1505.2,325.3,-0.8,1.8,2471.325,13.29,0.017,121.0
2023-01-22T06:25:03,42.805,6.029,-0.008,-0.019,-0.011,103.0,102.0,102.0,13.4,1505.2,332.6,-0.7,1.8,2471.317,13.29,0.02,202.8
2023-01-22T06:28:03,42.805,6.029,0.001,-0.013,0.012,103.0,103.0,102.0,13.4,1505.2,336.8,-0.8,1.8,2471.319,13.29,0.013,175.6
2023-01-22T06:31:03,42.805,6.029,0.004,-0.013,0.019,103.0,103.0,102.0,13.4,1505.2,321.5,-0.8,1.8,2471.325,13.29,0.013,162.9
2023-01-22T06:34:03,42.805,6.029,0.001,-0.01,0.016,102.0,102.0,103.0,13.4,1505.2,335.7,-0.8,1.8,2471.334,13.29,0.01,174.3
2023-01-22T06:37:03,42.805,6.029,-0.013,-0.016,-0.036,102.0,104.0,102.0,13.3,1505.2,321.0,-0.8,1.8,2471.346,13.29,0.02,219.1
2023-01-22T06:40:03,42.805,6.029,0.002,-0.042,-0.005,103.0,103.0,102.0,13.4,1505.2,319.4,-0.8,1.9,2471.328,13.29,0.042,177.3
2023-01-22T06:43:03,42.805,6.029,0.038,-0.017,-0.005,102.0,104.0,101.0,13.4,1505.2,323.7,-0.8,1.8,2471.34,13.29,0.041,114.1
2023-01-22T06:46:03,42.805,6.029,-0.021,-0.004,-0.017,103.0,102.0,101.0,13.4,1505.2,329.1,-0.8,1.8,2471.299,13.29,0.021,259.2
2023-01-22T06:49:03,42.805,6.029,0.001,-0.01,0.007,103.0,103.0,102.0,13.4,1505.2,332.1,-0.8,1.8,2471.337,13.29,0.01,174.3
2023-01-22T06:52:03,42.805,6.029,0.02,-0.005,0.001,102.0,103.0,102.0,13.3,1505.2,317.2,-0.8,1.8,2471.338,13.29,0.02,104.0
2023-01-22T06:55:03,42.805,6.029,0.004,0.0,0.003,103.0,102.0,102.0,13.4,1505.2,339.2,-0.8,1.8,2471.357,13.29,0.004,90.0
2023-01-22T06:58:03,42.805,6.029,-0.004,-0.034,-0.011,102.0,103.0,101.0,13.4,1505.2,329.6,-0.8,1.8,2471.369,13.29,0.034,186.7
2023-01-22T07:04:03,42.805,6.029,0.011,-0.015,0.0,103.0,103.0,102.0,13.4,1505.2,334.2,-0.7,1.8,2471.415,13.28,0.018,143.7
2023-01-22T07:07:03,42.805,6.029,-0.01,-0.029,-0.008,102.0,103.0,103.0,13.4,1505.2,327.9,-0.8,1.9,2471.405,13.28,0.03,199.0
2023-01-22T07:10:03,42.805,6.029,0.009,-0.019,-0.005,103.0,102.0,103.0,13.4,1505.2,327.2,-0.8,1.8,2471.393,13.28,0.021,154.7
2023-01-22T07:13:03,42.805,6.029,0.021,-0.028,0.011,103.0,102.0,102.0,13.3,1505.2,320.5,-0.8,1.8,2471.397,13.29,0.035,143.1
2023-01-22T07:16:03,42.805,6.029,0.013,-0.021,-0.007,102.0,102.0,103.0,13.3,1505.2,323.7,-0.8,1.8,2471.348,13.29,0.024,148.2
2023-01-22T07:19:03,42.805,6.029,0.011,-0.029,-0.006,104.0,104.0,102.0,13.3,1505.2,337.2,-0.8,1.8,2471.379,13.29,0.031,159.2
2023-01-22T07:22:03,42.805,6.029,0.007,-0.02,-0.009,104.0,104.0,102.0,13.3,1505.2,335.4,-0.8,1.8,2471.371,13.29,0.021,160.7
2023-01-22T07:25:03,42.805,6.029,0.02,-0.008,0.015,104.0,102.0,103.0,13.4,1505.2,329.1,-0.8,1.8,2471.354,13.29,0.021,111.8
2023-01-22T07:28:03,42.805,6.029,0.003,-0.014,0.008,103.0,103.0,102.0,13.4,1505.2,335.5,-0.7,1.8,2471.352,13.29,0.014,167.9
2023-01-22T07:31:03,42.805,6.029,0.018,-0.022,0.004,105.0,102.0,102.0,13.3,1505.2,326.5,-0.8,1.8,2471.384,13.29,0.028,140.7
2023-01-22T07:34:03,42.805,6.029,0.016,-0.028,-0.005,103.0,101.0,103.0,13.4,1505.2,331.5,-0.8,1.8,2471.366,13.29,0.032,150.3
2023-01-22T07:37:03,42.805,6.029,0.042,-0.02,0.016,104.0,104.0,102.0,13.4,1505.2,324.3,-0.8,1.9,2471.346,13.29,0.046,115.5
2023-01-22T07:40:03,42.805,6.029,0.019,-0.037,0.005,103.0,103.0,101.0,13.4,1505.2,338.7,-0.7,1.8,2471.36,13.29,0.041,152.8
2023-01-22T07:43:03,42.805,6.029,-0.002,0.0,0.001,103.0,102.0,102.0,13.4,1505.2,331.7,-0.8,1.8,2471.362,13.29,0.002,270.0
2023-01-22T07:46:03,42.805,6.029,0.019,-0.03,-0.026,103.0,102.0,102.0,13.3,1505.2,325.5,-0.8,1.8,2471.368,13.29,0.035,147.7
2023-01-22T07:49:03,42.805,6.029,0.028,0.001,0.016,104.0,104.0,101.0,13.4,1505.2,322.2,-0.8,1.8,2471.372,13.29,0.028,88.0
2023-01-22T07:52:03,42.805,6.029,0.015,-0.014,0.015,102.0,103.0,102.0,13.4,1505.2,320.0,-0.8,1.8,2471.377,13.29,0.02,133.0
2023-01-22T07:55:03,42.805,6.029,0.01,-0.024,0.0,103.0,103.0,101.0,13.4,1505.2,335.0,-0.8,1.8,2471.367,13.29,0.026,157.4
2023-01-22T07:58:03,42.805,6.029,0.01,-0.017,0.006,103.0,104.0,102.0,13.4,1505.2,318.8,-0.8,1.8,2471.392,13.29,0.019,149.5
2023-01-22T08:04:03,42.805,6.029,0.03,-0.028,-0.045,103.0,103.0,103.0,13.4,1505.2,326.3,-0.7,1.8,2471.427,13.28,0.041,133.0
2023-01-22T08:07:03,42.805,6.029,0.007,-0.014,0.012,104.0,102.0,101.0,13.3,1505.2,333.4,-0.7,1.8,2471.418,13.28,0.015,153.4
2023-01-22T08:10:03,42.805,6.029,0.004,-0.007,0.036,103.0,102.0,102.0,13.3,1505.2,338.0,-0.8,1.8,2471.354,13.29,0.008,150.3
2023-01-22T08:13:03,42.805,6.029,0.0,-0.009,-0.002,103.0,104.0,102.0,13.4,1505.2,330.6,-0.8,1.8,2471.45,13.29,0.009,180.0
2023-01-22T08:16:03,42.805,6.029,0.006,-0.018,0.013,103.0,103.0,103.0,13.3,1505.2,326.7,-0.8,1.8,2471.393,13.29,0.018,161.6
2023-01-22T08:19:03,42.805,6.029,0.01,-0.022,-0.006,104.0,103.0,102.0,13.4,1505.2,320.6,-0.8,1.8,2471.335,13.29,0.024,155.6
2023-01-22T08:22:03,42.805,6.029,0.013,-0.023,0.003,103.0,102.0,101.0,13.4,1505.2,333.4,-0.8,1.8,2471.419,13.29,0.026,150.5
2023-01-22T08:25:03,42.805,6.029,0.023,0.001,0.025,103.0,103.0,102.0,13.4,1505.2,334.9,-0.8,1.8,2471.369,13.29,0.023,87.5
2023-01-22T08:28:03,42.805,6.029,0.01,-0.031,-0.015,105.0,102.0,103.0,13.4,1505.2,322.0,-0.7,1.8,2471.346,13.29,0.032,162.1
2023-01-22T08:31:03,42.805,6.029,0.001,-0.002,0.015,103.0,103.0,102.0,13.3,1505.2,317.3,-0.8,1.8,2471.357,13.29,0.002,153.4
2023-01-22T08:34:03,42.805,6.029,0.018,-0.026,-0.034,104.0,104.0,101.0,13.3,1505.2,323.6,-0.8,1.8,2471.344,13.29,0.031,145.3
2023-01-22T08:37:03,42.805,6.029,0.015,-0.028,-0.006,102.0,102.0,102.0,13.3,1505.2,334.2,-0.8,1.8,2471.343,13.29,0.031,151.8
2023-01-22T08:40:03,42.805,6.029,-0.002,-0.011,0.006,104.0,102.0,102.0,13.3,1505.2,336.3,-0.8,1.8,2471.369,13.29,0.011,190.3
2023-01-22T08:43:03,42.805,6.029,0.002,-0.002,0.023,103.0,103.0,102.0,13.3,1505.2,332.7,-0.8,1.9,2471.368,13.29,0.002,135.0
2023-01-22T08:46:03,42.805,6.029,-0.009,-0.011,-0.019,103.0,102.0,103.0,13.4,1505.2,331.0,-0.8,1.8,2471.363,13.29,0.014,219.3
2023-01-22T08:49:03,42.805,6.029,0.004,-0.016,0.009,104.0,105.0,102.0,13.4,1505.2,335.8,-0.8,1.8,2471.311,13.29,0.016,166.0
2023-01-22T08:52:03,42.805,6.029,0.019,-0.022,-0.02,103.0,104.0,102.0,13.4,1505.2,338.0,-0.8,1.8,2471.348,13.29,0.029,139.2
2023-01-22T08:55:03,42.805,6.029,-0.009,-0.016,-0.01,102.0,102.0,103.0,13.4,1505.2,329.9,-0.8,1.8,2471.372,13.29,0.018,209.4
2023-01-22T08:58:03,42.805,6.029,-0.007,-0.008,-0.007,103.0,102.0,102.0,13.4,1505.2,318.1,-0.7,1.8,2471.382,13.29,0.01,221.2
2023-01-22T09:04:03,42.805,6.029,-0.004,-0.019,-0.032,103.0,103.0,102.0,13.4,1505.2,322.8,-0.8,1.8,2471.384,13.28,0.019,191.9
2023-01-22T09:07:03,42.805,6.029,-0.013,-0.017,-0.002,103.0,104.0,102.0,13.4,1505.2,336.8,-0.8,1.8,2471.369,13.28,0.021,217.4
2023-01-22T09:10:03,42.805,6.029,0.002,0.003,0.034,104.0,104.0,103.0,13.3,1505.2,332.5,-0.7,1.8,2471.391,13.29,0.003,33.7
2023-01-22T09:13:03,42.805,6.029,0.02,-0.029,-0.017,102.0,103.0,102.0,13.4,1505.2,315.0,-0.8,1.8,2471.397,13.29,0.035,145.4
2023-01-22T09:16:03,42.805,6.029,0.0,-0.014,-0.017,104.0,104.0,102.0,13.3,1505.2,316.0,-0.8,1.8,2471.385,13.29,0.014,180.0
2023-01-22T09:19:03,42.805,6.029,-0.016,-0.004,-0.009,104.0,103.0,106.0,13.4,1505.2,315.0,-0.8,1.8,2471.38,13.29,0.016,256.0
2023-01-22T09:22:03,42.805,6.029,0.006,-0.026,0.002,102.0,104.0,102.0,13.3,1505.2,318.7,-0.8,1.8,2471.345,13.29,0.026,167.0
2023-01-22T09:25:03,42.805,6.029,0.0,-0.011,-0.002,102.0,103.0,103.0,13.4,1505.2,323.3,-0.7,1.8,2471.368,13.29,0.011,180.0
2023-01-22T09:28:03,42.805,6.029,0.018,-0.015,0.017,104.0,102.0,102.0,13.3,1505.2,333.8,-0.8,1.8,2471.353,13.29,0.023,129.8
2023-01-22T09:31:03,42.805,6.029,-0.005,-0.042,0.021,102.0,104.0,102.0,13.4,1505.2,328.5,-0.8,1.8,2471.353,13.29,0.042,186.8
2023-01-22T09:34:03,42.805,6.029,0.018,-0.018,-0.02,104.0,101.0,101.0,13.4,1505.2,323.1,-0.7,1.8,2471.341,13.29,0.025,135.0
2023-01-22T09:37:03,42.805,6.029,0.014,-0.016,-0.011,103.0,102.0,102.0,13.3,1505.2,321.2,-0.8,1.8,2471.342,13.29,0.021,138.8
2023-01-22T09:40:03,42.805,6.029,0.013,-0.009,0.004,103.0,102.0,103.0,13.3,1505.2,324.8,-0.8,1.8,2471.348,13.29,0.015,124.7
2023-01-22T09:43:03,42.805,6.029,-0.003,-0.013,0.005,103.0,103.0,102.0,13.4,1505.2,336.9,-0.7,1.8,2471.321,13.29,0.013,193.0
2023-01-22T09:46:03,42.805,6.029,0.009,-0.025,-0.022,103.0,102.0,102.0,13.3,1505.2,317.6,-0.8,1.8,2471.331,13.29,0.026,160.2
2023-01-22T09:49:03,42.805,6.029,0.01,-0.013,0.045,103.0,104.0,102.0,13.4,1505.2,332.2,-0.8,1.8,2471.325,13.29,0.016,142.4
2023-01-22T09:52:03,42.805,6.029,0.008,-0.014,0.005,103.0,102.0,103.0,13.3,1505.2,317.0,-0.8,1.9,2471.301,13.29,0.016,150.3
2023-01-22T09:55:03,42.805,6.029,0.01,-0.029,-0.014,103.0,103.0,103.0,13.4,1505.2,323.7,-0.8,1.9,2471.305,13.29,0.03,161.0